[[{"header":{"parameterUnit":"m.s-1","parameterCategory":1,"la1":30.2991,"la2":30.254,"lo1":-89.0895,"lo2":-89.0444,"dy":0.0017,"dx":0.0017,"nx":28,"ny":28,"refTime":"2025-12-25T03:00:00:Z","depth":0,"parameterNumber":2,"parameterNumberName":"U-component_of_WINDS"},"data":[0,0,0,0,0,0,0,0,0,0,0,0,0,0,0,0,0,0,0,0,0,0,0,0,0,0,0,0,0,0,0,0,0,0,0,0,0,0,0,0,0,0,0,0,0,0,0,0,0,0,0,0,0,0,0,0,0,0,1.8917,1.8919,0,1.9068,1.9069,1.9071,1.9105,1.9104,1.9103,1.9102,1.926,1.9265,1.927,0,0,0,0,0,0,0,0,0,0,0,0,0,1.8665,1.867,1.8917,1.8919,1.8921,1.9067,1.907,1.9072,1.9105,1.9104,1.9102,1.9101,1.9258,1.9264,1.9271,0,0,0,0,0,0,0,0,0,0,0,0,0,1.8791,1.8671,1.8917,1.8955,1.896,1.9067,1.907,1.9072,1.9105,1.9104,1.9102,1.9101,1.9256,1.9264,1.9272,1.9352,0,0,1.9295,1.9299,0,0,0,0,0,0,0,0,1.8784,1.88,1.8948,1.8953,1.8958,1.9066,1.9039,1.9166,1.9106,1.905,1.9102,1.91,1.9197,1.921,1.9241,1.9359,1.9366,1.9296,1.9301,1.9304,1.9306,0,0,0,0,0,0,0,1.8775,1.8794,1.8977,1.895,1.8956,1.8967,1.8983,1.9063,1.9131,1.9055,1.9058,1.9075,1.92,1.9234,1.9245,1.9369,1.9296,1.9303,1.9308,1.9311,1.9565,1.9567,0,0,0,0,0,0,1.8759,1.8787,1.8972,1.8981,1.8865,1.8973,1.8991,1.9033,1.913,1.9143,1.9076,1.9076,1.9221,1.9236,1.9251,1.9354,1.9304,1.9311,1.9316,1.9563,1.9565,1.9567,0,0,0,0,0,0,1.8753,1.8775,1.8966,1.8885,1.891,1.8979,1.9026,1.9037,1.9071,1.9146,1.9159,1.9098,1.9221,1.924,1.9327,1.936,1.9315,1.9322,1.956,1.9563,1.9566,1.9559,0,0,0,0,0,0,1.8746,1.8773,1.8802,1.8885,1.8914,1.9038,1.9028,1.9041,1.9084,1.9085,1.917,1.9183,1.9221,1.9315,1.9335,1.937,1.9328,1.9558,1.9562,1.9565,1.9557,1.9562,1.9566,0,0,0,0,0,1.8737,1.8794,1.8804,1.8826,1.8952,1.9039,1.9056,1.9097,1.9086,1.9118,1.9167,1.918,1.9353,1.9324,1.9346,1.9384,1.9556,1.9561,1.9565,1.9555,1.9561,1.9566,0,0,0,0,0,0,1.8714,1.8806,1.8817,1.8903,1.8963,1.9045,1.9085,1.9102,1.9167,1.9166,1.9216,1.9235,1.932,1.9361,1.9327,1.9469,1.9455,1.9464,1.9439,1.9445,1.945,1.9438,1.9335,0,0,0,0,0,1.8719,1.878,1.8858,1.8926,1.8956,1.9016,1.9055,1.9082,1.9147,1.9173,1.9228,1.9292,1.9361,1.9405,1.9473,1.9563,1.9584,1.9601,1.9605,1.9608,1.9616,1.967,1.9679,1.9583,1.9583,1.9583,0,0,1.873,1.8788,1.8823,1.8923,1.8973,1.9038,1.9037,1.9104,1.9154,1.9184,1.9269,1.9312,1.9388,1.9477,1.952,1.9514,1.9648,1.9614,1.9616,1.9622,1.9676,1.9685,1.9693,1.9586,1.9585,1.9585,0,0,1.8782,1.8831,1.8895,1.8945,1.9021,1.9061,1.9076,1.9156,1.9186,1.9273,1.9298,1.9358,1.9475,1.9529,1.9571,1.9648,1.9664,1.9669,1.9693,1.9745,1.9752,1.9759,1.9789,1.9799,1.9677,1.9677,1.9677,0,1.8786,1.8883,1.8926,1.8993,1.9038,1.9068,1.9134,1.9182,1.9276,1.9307,1.9299,1.945,1.9502,1.9606,1.9625,1.9658,1.9679,1.9659,1.9747,1.9755,1.9762,1.9791,1.9802,1.9677,1.9677,1.9677,1.9677,0,1.8886,1.8953,1.8995,1.9085,1.9135,1.9201,1.9257,1.9302,1.9326,1.9368,1.9458,1.9522,1.9605,1.9632,1.9655,1.9741,1.9735,1.9737,1.9723,1.9771,1.9799,1.981,1.9677,1.9677,1.9677,1.9677,0,0,1.8926,1.904,1.9055,1.9098,1.9185,1.9239,1.9309,1.9389,1.9428,1.9493,1.9555,1.9655,1.9658,1.9707,1.9737,1.9783,1.9843,1.978,1.9783,1.9791,1.9944,1.9943,1.9954,1.9854,1.9857,1.9858,1.9939,0,1.899,1.9113,1.9155,1.9258,1.9323,1.9354,1.9416,1.9477,1.9519,1.9582,1.9629,1.97,1.9697,1.9727,1.9774,1.9826,1.9875,1.9821,1.9914,1.9917,1.9894,1.9969,1.9967,2.0039,1.995,1.9951,1.9953,0,1.908,1.9146,1.9256,1.9338,1.9367,1.9421,1.9499,1.9558,1.963,1.9658,1.9714,1.9742,1.9819,1.9801,1.991,1.9872,1.9913,1.9945,1.9949,1.996,1.9938,1.9982,2.0062,2.0073,1.997,1.9969,1.9968,0,1.91,1.9217,1.9298,1.9334,1.9431,1.9469,1.9512,1.9582,1.9629,1.9699,1.973,1.9808,1.9851,1.9913,1.9963,1.9944,2.0068,2.0053,2.0095,2.0094,2.0119,2.0117,2.0208,2.0145,2.0145,2.0144,2.0144,0,1.9167,1.9233,1.9309,1.9359,1.9435,1.9485,1.956,1.9605,1.9668,1.973,1.9763,1.982,1.9882,1.9948,1.9988,2.0074,2.0093,2.0119,2.0129,2.0116,2.0113,2.0144,2.0141,2.0147,2.0147,2.0146,2.0146,0,1.9201,1.9254,1.9346,1.9431,1.9455,1.9507,1.9582,1.9634,1.9678,1.9756,1.9777,1.9847,1.9928,1.9984,2.0087,2.0114,2.0207,2.0216,2.0182,2.0187,2.0226,2.0222,2.034,2.0359,2.0283,2.0283,2.0284,0,1.924,1.9292,1.9384,1.9427,1.947,1.9539,1.9587,1.964,1.9689,1.9778,1.9819,1.9902,1.997,2.0098,2.016,2.024,2.0252,2.0288,2.0264,2.0251,2.0254,2.025,2.0257,2.0291,2.0292,2.0292,2.0293,0,1.9305,1.933,1.9397,1.9475,1.9531,1.9595,1.966,1.9694,1.9759,1.9813,1.9895,1.9949,2.0055,2.0138,2.0225,2.0272,2.0294,2.03,2.0314,2.0302,2.0281,2.0294,2.0193,2.0297,2.0296,2.0296,2.0296,2.0296,1.9344,1.9392,1.9465,1.9541,1.9595,1.9655,1.9709,1.9761,1.983,1.992,1.9947,2.0034,2.0109,2.0228,2.0277,2.0347,2.0344,2.0364,2.037,2.0374,2.0374,2.0269,2.0363,2.0363,2.0363,2.0363,2.0363,0,1.9411,1.946,1.9529,1.9619,1.9679,1.9694,1.9768,1.9818,1.9892,1.996,2.0028,2.0125,2.0206,2.0275,2.036,2.0403,2.0416,2.0424,2.0422,2.0433,2.0371,2.0351,2.0413,2.0413,2.0412,2.0412,2.0412,2.0412,1.9453,1.9536,1.9571,1.9683,1.9733,1.9817,1.9858,1.9915,1.997,2.0076,2.0143,2.0188,2.0258,2.0349,2.0425,2.0444,2.0475,2.048,2.0501,2.0442,2.0437,2.0431,2.0412,2.0486,2.0486,2.0558,2.0558,2.0559]},{"header":{"parameterUnit":"m.s-1","parameterCategory":1,"la1":30.2991,"la2":30.254,"lo1":-89.0895,"lo2":-89.0444,"dy":0.0017,"dx":0.0017,"nx":28,"ny":28,"refTime":"2025-12-25T03:00:00:Z","depth":0,"parameterNumber":3,"parameterNumberName":"V-component_of_WINDS"},"data":[0,0,0,0,0,0,0,0,0,0,0,0,0,0,0,0,0,0,0,0,0,0,0,0,0,0,0,0,0,0,0,0,0,0,0,0,0,0,0,0,0,0,0,0,0,0,0,0,0,0,0,0,0,0,0,0,0,0,1.9703,1.9703,0,1.9719,1.9719,1.9719,1.9721,1.9721,1.9721,1.9721,1.9736,1.9736,1.9737,0,0,0,0,0,0,0,0,0,0,0,0,0,1.9675,1.9676,1.9703,1.9703,1.9704,1.9719,1.9719,1.9719,1.9721,1.9721,1.9721,1.9721,1.9735,1.9736,1.9737,0,0,0,0,0,0,0,0,0,0,0,0,0,1.9689,1.9676,1.9703,1.9707,1.9707,1.9719,1.9719,1.9719,1.9721,1.9721,1.9721,1.9721,1.9735,1.9736,1.9737,1.9746,0,0,1.9739,1.9739,0,0,0,0,0,0,0,0,1.9688,1.969,1.9706,1.9706,1.9707,1.9718,1.9714,1.9728,1.9722,1.9716,1.9721,1.9721,1.973,1.9731,1.9734,1.9746,1.9747,1.9739,1.974,1.974,1.974,0,0,0,0,0,0,0,1.9687,1.9689,1.9709,1.9706,1.9707,1.9707,1.9709,1.9717,1.9724,1.9716,1.9717,1.9719,1.973,1.9734,1.9735,1.9747,1.9739,1.974,1.974,1.9741,1.9768,1.9768,0,0,0,0,0,0,1.9685,1.9688,1.9709,1.971,1.9697,1.9708,1.971,1.9715,1.9724,1.9725,1.9719,1.9719,1.9732,1.9734,1.9735,1.9747,1.974,1.9741,1.9741,1.9768,1.9768,1.9768,0,0,0,0,0,0,1.9685,1.9687,1.9708,1.9699,1.9702,1.9709,1.9714,1.9715,1.9719,1.9725,1.9727,1.9721,1.9732,1.9734,1.9743,1.9747,1.9741,1.9742,1.9767,1.9768,1.9768,1.9769,0,0,0,0,0,0,1.9684,1.9687,1.969,1.9699,1.9702,1.9716,1.9714,1.9715,1.972,1.972,1.9728,1.9729,1.9732,1.9742,1.9744,1.9748,1.9742,1.9767,1.9767,1.9768,1.9769,1.977,1.977,0,0,0,0,0,1.9683,1.969,1.9691,1.9693,1.9707,1.9716,1.9718,1.9722,1.972,1.9724,1.9728,1.9729,1.9746,1.9743,1.9745,1.975,1.9767,1.9767,1.9768,1.9769,1.977,1.977,0,0,0,0,0,0,1.9681,1.9691,1.9692,1.9702,1.9708,1.9717,1.9721,1.9723,1.9729,1.9729,1.9733,1.9735,1.9744,1.9748,1.9744,1.9759,1.9756,1.9757,1.9756,1.9757,1.9758,1.9757,1.9743,0,0,0,0,0,1.9681,1.9689,1.9697,1.9705,1.9708,1.9714,1.9718,1.9721,1.9728,1.973,1.9735,1.9742,1.9749,1.9753,1.976,1.977,1.9772,1.9774,1.9774,1.9775,1.9776,1.9782,1.9783,1.977,1.977,1.977,0,0,1.9683,1.9689,1.9693,1.9705,1.971,1.9717,1.9716,1.9724,1.9729,1.9731,1.974,1.9745,1.9752,1.9761,1.9766,1.9765,1.978,1.9776,1.9776,1.9777,1.9783,1.9784,1.9785,1.977,1.977,1.977,0,0,1.9689,1.9695,1.9702,1.9708,1.9716,1.972,1.9722,1.9731,1.9734,1.9743,1.9745,1.9751,1.9763,1.9769,1.9773,1.9782,1.9783,1.9784,1.9788,1.9794,1.9795,1.9796,1.98,1.9801,1.9785,1.9785,1.9785,0,1.969,1.9701,1.9706,1.9714,1.9719,1.9721,1.9729,1.9734,1.9744,1.9748,1.9746,1.9762,1.9767,1.9778,1.9781,1.9784,1.9786,1.9783,1.9794,1.9795,1.9796,1.98,1.9802,1.9785,1.9785,1.9785,1.9785,0,1.9701,1.9709,1.9714,1.9725,1.9731,1.9738,1.9744,1.9749,1.9751,1.9756,1.9766,1.9772,1.978,1.9783,1.9785,1.9795,1.9794,1.9794,1.9791,1.9798,1.9801,1.9803,1.9785,1.9785,1.9785,1.9785,0,0,1.9706,1.972,1.9722,1.9727,1.9737,1.9743,1.9751,1.976,1.9764,1.9771,1.9778,1.9789,1.9789,1.9794,1.9796,1.9801,1.9809,1.98,1.98,1.9802,1.9821,1.9822,1.9823,1.981,1.981,1.981,1.9821,0,1.9714,1.9729,1.9734,1.9746,1.9754,1.9757,1.9764,1.9771,1.9775,1.9783,1.9787,1.9795,1.9794,1.9797,1.9802,1.9807,1.9813,1.9806,1.9816,1.9817,1.9815,1.9825,1.9826,1.9835,1.9822,1.9822,1.9823,0,1.9725,1.9733,1.9746,1.9756,1.976,1.9766,1.9775,1.9782,1.979,1.9793,1.9799,1.9801,1.981,1.9807,1.9819,1.9814,1.9819,1.9822,1.9822,1.9824,1.982,1.9827,1.9838,1.984,1.9825,1.9825,1.9824,0,1.9727,1.9742,1.9752,1.9756,1.9768,1.9772,1.9777,1.9785,1.979,1.9798,1.9802,1.981,1.9815,1.9821,1.9826,1.9824,1.9838,1.9835,1.9841,1.9841,1.9844,1.9843,1.9856,1.9846,1.9846,1.9846,1.9846,0,1.9736,1.9744,1.9753,1.9759,1.9769,1.9775,1.9784,1.9789,1.9796,1.9803,1.9806,1.9813,1.9819,1.9826,1.983,1.984,1.9842,1.9844,1.9845,1.9844,1.9844,1.9847,1.9847,1.9846,1.9846,1.9846,1.9846,0,1.974,1.9747,1.9758,1.9769,1.9771,1.9778,1.9787,1.9793,1.9798,1.9807,1.981,1.9817,1.9826,1.9832,1.9843,1.9846,1.9857,1.9857,1.9854,1.9855,1.986,1.9859,1.9875,1.9878,1.9866,1.9866,1.9866,0,1.9745,1.9752,1.9763,1.9769,1.9774,1.9782,1.9788,1.9794,1.98,1.981,1.9815,1.9825,1.9833,1.9847,1.9854,1.9862,1.9863,1.9868,1.9864,1.9864,1.9864,1.9863,1.9864,1.9869,1.9869,1.9869,1.9869,0,1.9753,1.9756,1.9765,1.9775,1.9782,1.979,1.9798,1.9802,1.981,1.9816,1.9826,1.9832,1.9844,1.9854,1.9863,1.9868,1.987,1.987,1.9872,1.9871,1.9869,1.9871,1.9856,1.987,1.987,1.987,1.987,1.987,1.9758,1.9765,1.9774,1.9784,1.9791,1.9798,1.9805,1.9811,1.982,1.983,1.9833,1.9844,1.9852,1.9865,1.9871,1.9879,1.9878,1.988,1.9881,1.9882,1.9882,1.9868,1.988,1.988,1.988,1.988,1.988,0,1.9767,1.9774,1.9782,1.9794,1.9802,1.9804,1.9813,1.9819,1.9828,1.9836,1.9844,1.9856,1.9865,1.9873,1.9883,1.9888,1.9889,1.989,1.989,1.9891,1.9882,1.988,1.9889,1.9889,1.9889,1.9889,1.9889,1.9889,1.9772,1.9783,1.9788,1.9803,1.9809,1.982,1.9825,1.9832,1.9839,1.9852,1.986,1.9865,1.9873,1.9884,1.9892,1.9894,1.9898,1.9899,1.9901,1.9892,1.9891,1.9891,1.9888,1.99,1.99,1.991,1.991,1.991]}]]